OE5OVL-13 Weather Reports


time (UTC)temp
C
wind
direction
speed
KPH
gust
KPH
rain 1hr
cm
rain 24hr
cm
rain mn
cm
humidity
%
barometer
mb
20260502200948 18 0.0 0.0 0.00 0.00 0.00 33 726.9
20260502195436 18 0.0 0.0 0.00 0.00 0.00 32 727.3
20260502193924 18 0.0 0.0 0.00 0.00 0.00 33 727.2
20260502190901 20 0.0 0.0 0.00 0.00 0.00 31 729.1
20260502185349 21 0.0 0.0 0.00 0.00 0.00 29 729.9
20260502183837 21 0.0 0.0 0.00 0.00 0.00 28 730.5
20260502182326 22 0.0 0.0 0.00 0.00 0.00 27 731.4
20260502180814 23 0.0 0.0 0.00 0.00 0.00 24 733.5
20260502163703 38 0.0 0.0 0.00 0.00 0.00 11 750.4
20260502162152 38 0.0 0.0 0.00 0.00 0.00 10 750.4
20260502160640 38 0.0 0.0 0.00 0.00 0.00 11 750.5
20260502152105 -12 0.0 0.0 0.00 0.00 0.00 10 749.1
20260502130419 31 0.0 0.0 0.00 0.00 0.00 18 742.2
20260502123355 30 0.0 0.0 0.00 0.00 0.00 21 741.1
20260502121843 28 0.0 0.0 0.00 0.00 0.00 20 739.2
20260502120332 28 0.0 0.0 0.00 0.00 0.00 20 738.6
20260502114820 27 0.0 0.0 0.00 0.00 0.00 23 737.6
20260502113308 26 0.0 0.0 0.00 0.00 0.00 22 736.5
20260502111756 25 0.0 0.0 0.00 0.00 0.00 24 735.5
20260502110245 25 0.0 0.0 0.00 0.00 0.00 28 734.7
20260502104733 24 0.0 0.0 0.00 0.00 0.00 31 733.9
20260502103221 23 0.0 0.0 0.00 0.00 0.00 33 733.1
20260502101709 22 0.0 0.0 0.00 0.00 0.00 34 732.3
20260502100158 22 0.0 0.0 0.00 0.00 0.00 38 731.7
20260502090111 19 0.0 0.0 0.00 0.00 0.00 47 728.2
20260502071449 12 0.0 0.0 0.00 0.00 0.00 63 720.9
20260502065937 12 0.0 0.0 0.00 0.00 0.00 65 720.3
20260502064425 12 0.0 0.0 0.00 0.00 0.00 66 719.7